Regional Weather Roundup
Issued by NWS

Home | Current Version | Previous Version | Text Only | Print | Product List | Glossary Off
Versions: 1 2 3 4 5 6 7 8 9 10 11 12 13 14 15 16 17 18 19 20 21 22 23 24 25 26 27 28 29 30 31 32 33 34 35 36 37 38 39 40 41 42 43 44 45 46 47 48 49 50

000
ASUS43 KIND 210859
RWRIN

WEATHER ROUNDUP FOR INDIANA
NATIONAL WEATHER SERVICE INDIANAPOLIS IN
400 AM EST WED FEB 21 2018

NOTE: "FAIR" INDICATES FEW OR NO CLOUDS BELOW 12,000 FEET WITH NO
SIGNIFICANT WEATHER AND/OR OBSTRUCTIONS TO VISIBILITY.

* - STATION DOES NOT REPORT WEATHER SUCH AS PRECIPITATION OR FOG.

+ - STATION NOT QUALITY CONTROLLED BY THE NATIONAL WEATHER SERVICE.
    USE DATA WITH CAUTION...ESPECIALLY DEWPOINT AND RELATIVE
    HUMIDITY OBSERVATIONS.

INZ001>003-010>013-019-020-211000-
NORTHWEST INDIANA

CITY           SKY/WX    TMP DP  RH WIND       PRES   REMARKS
MONTICELLO +   RAIN      37  36  95 NW15      30.21R WCI  28
RENSSELAER +   LGT RAIN  36  32  87 NW12G20   30.24R WCI  27

$$

LMZ046-743>745-211000-
SOUTHERN LAKE MICHIGAN

STATION/POSITION TIME  TEMP    WIND        PRES    WAVE
                       AIR SEA DIR/SP/G            HT
                 (UTC) (F)     (DEG/KT/KT) (MB)    (FT)
BURNS HARBOR     0840   32     340/ 19/ 22 1024.7R
MICHIGAN CITY    0830   32     320/ 24/ 26   N/A

$$

INZ004-005-014>016-021>024-211000-
NORTH CENTRAL INDIANA

CITY           SKY/WX    TMP DP  RH WIND       PRES   REMARKS
GOSHEN         RAIN      38  35  89 NW17      30.17R WCI  28
PERU/GRISSOM   RAIN      40  40 100 NW12      30.18R WCI  33
SOUTH BEND     LGT RAIN  33  31  92 NW17G23   30.22R FOG     WCI  22
WARSAW +       RAIN      36  36 100 NE9       30.17R WCI  29

$$

INZ006>009-017-018-025>027-211000-
NORTHEAST INDIANA

CITY           SKY/WX    TMP DP  RH WIND       PRES   REMARKS
AUBURN +       RAIN      43  41  93 NW7       30.15R
FORT WAYNE     LGT RAIN  45  43  93 NW13      30.15R
KENDALLVILLE + LGT RAIN  40  40 100 N7        30.15R WCI  35

$$

INZ028-029-035-036-043>045-051>053-211000-
WEST CENTRAL INDIANA

CITY           SKY/WX    TMP DP  RH WIND       PRES   REMARKS
GREENCASTLE +  LGT RAIN  41  39  93 NW8       30.20R
LAFAYETTE      RAIN      37  36  96 NW14      30.23R FOG     WCI  28
TERRE HAUTE    LGT RAIN  39  37  92 N14       30.20S WCI  31

$$

INZ030>032-037>040-046>048-054>057-064-065-211000-
CENTRAL INDIANA

CITY           SKY/WX    TMP DP  RH WIND       PRES   REMARKS
GREENWOOD *+   CLOUDY    50 -41   2 NW15      30.15R
INDIANAPOLIS   LGT RAIN  45  44  97 NW14      30.18R
-EAGLE CREEK   RAIN      46  42  86 NW13      30.16R
KOKOMO +       RAIN      42  41  96 NW12      30.19R
MT COMFORT *+  CLOUDY    48  48 100 NW13G18   30.16R
SHELBYVILLE    HVY RAIN  57  54  89 NW12      30.13R FOG

$$

INZ033-034-041-042-049-050-058-059-211000-
EAST CENTRAL INDIANA

CITY           SKY/WX    TMP DP  RH WIND       PRES   REMARKS
MUNCIE         RAIN      57  55  93 NW8       30.12R FOG
RICHMOND +     MOCLDY    61  59  94 S16       30.08S

$$

INZ060-061-067>069-081>083-085>088-211000-
SOUTHWEST INDIANA

CITY           SKY/WX    TMP DP  RH WIND       PRES   REMARKS
EVANSVILLE     LGT RAIN  46  46 100 N7        30.17F
HUNTINGBURG +  LGT RAIN  52  51  97 NW9       30.18R

$$

INZ062-063-066-070>080-084-089>092-211000-
SOUTH CENTRAL AND SOUTHEAST INDIANA

CITY           SKY/WX    TMP DP  RH WIND       PRES   REMARKS
BLOOMINGTON    LGT RAIN  52  51  97 NW12      30.16R
FRENCH LICK *+ CLOUDY    52 N/A N/A NW16      30.15R
SEYMOUR +      HVY RAIN  61  55  82 NW21G31   30.14R

$$





USA.gov is the U.S. government's official web portal to all federal, state and local government web resources and services.